WetterOnline ( http://www.wetteronline.de )

Wetter aktuell Trhanov

Aktuelles Wetter: Zwiesel (613m)

6-stündlich | Neueste Meldungen
Ortszeit Temperatur Wetter
Sa, 21.10. 20:00 12.1° C bedeckt
Sa, 21.10. 14:00 14.8° C bewölkt
Sa, 21.10. 8:00 8.4° C Sprühregen
Sa, 21.10. 2:00 8.4° C bewölkt
Ortszeit Temperatur Wetter
Sa, 21.10. 23:00 10.3° C bewölkt
Sa, 21.10. 22:30 10.5° C wolkig
Sa, 21.10. 22:00 10.8° C bedeckt
Sa, 21.10. 21:30 11.3° C wolkig
Sa, 21.10. 21:00 12.2° C bedeckt
Sa, 21.10. 20:30 11.8° C bedeckt
Ortszeit Relative Feuchte Sichtweite
Sa, 21.10. 20:00 91% 12 km
Sa, 21.10. 14:00 75% 18 km
Sa, 21.10. 8:00 97% 2.9 km
Sa, 21.10. 2:00 96% 4.0 km
Ortszeit Relative Feuchte Sichtweite
Sa, 21.10. 23:00 97% 1.4 km
Sa, 21.10. 22:30 97% 3.2 km
Sa, 21.10. 22:00 96% 4.7 km
Sa, 21.10. 21:30 92% 6 km
Sa, 21.10. 21:00 91% 7 km
Sa, 21.10. 20:30 92% 11 km
Ortszeit Niederschlagsmenge Niederschlagsart
Sa, 21.10. 20:00 0.1 l/m2 in 12 Std. -
Sa, 21.10. 14:00 0.1 l/m2 in 6 Std. Sprühregen
Sa, 21.10. 8:00 1 l/m2 in 12 Std. Regen
Sa, 21.10. 2:00 0.6 l/m2 in 6 Std. Regen
Ortszeit Niederschlagsmenge Niederschlagsart
Sa, 21.10. 23:00 0.0 l/m2 in 1 Std. -
Sa, 21.10. 22:30 keine Meldung -
Sa, 21.10. 22:00 0.0 l/m2 in 1 Std. -
Sa, 21.10. 21:30 keine Meldung -
Sa, 21.10. 21:00 0.0 l/m2 in 1 Std. -
Sa, 21.10. 20:30 keine Meldung -
Ortszeit Stärke Spitze Richtung
km/h Bft. km/h Grad Sektor
Sa, 21.10. 20:00 0 0 22 - -
Sa, 21.10. 14:00 9 2 17 250° W
Sa, 21.10. 8:00 0 0 7 - -
Sa, 21.10. 2:00 2 1 7 70° O
Ortszeit Stärke Spitze Richtung
km/h Bft. km/h Grad Sektor
Sa, 21.10. 23:00 4 1 7 70° O
Sa, 21.10. 22:30 2 1 6 310° NW
Sa, 21.10. 22:00 4 1 11 340° N
Sa, 21.10. 21:30 6 1 11 100° O
Sa, 21.10. 21:00 9 2 15 100° O
Sa, 21.10. 20:30 2 1 6 50° NO
Ortszeit Untergrenze Bedeckung Gattung
total tief tief mittel hoch
Sa, 21.10. 20:00 690 m 8/8 8/8 - - -
Sa, 21.10. 14:00 570 m 7/8 7/8 - - -
Sa, 21.10. 8:00 480 m 8/8 8/8 - - -
Sa, 21.10. 2:00 1410 m 8/8 7/8 - - -
Ortszeit Bedeckungsgrad in Achtel und Wolkenuntergrenze
Sa, 21.10. 23:00 5(330m) 8(7800m) 8(9000m)
Sa, 21.10. 22:30 2(300m) 8(7500m) 8(9000m)
Sa, 21.10. 22:00 7(3900m) 8(5400m) 8(6600m)
Sa, 21.10. 21:30 1(360m) 8(5100m) 8(6600m)
Sa, 21.10. 21:00 8(1290m)
Sa, 21.10. 20:30 2(600m) 8(1320m) 8(6000m)
Ortszeit Luftdruck NN (hPa) Tendenz (hPa in 3 Std.)
Sa, 21.10. 20:00 1017 + 0,3
Sa, 21.10. 14:00 1017 - 1,1
Sa, 21.10. 8:00 1019 0,0
Sa, 21.10. 2:00 1019 + 0,4
Ortszeit Luftdruck NN (hPa) Tendenz (hPa in 3 Std.)
Sa, 21.10. 23:00 1016 - 1,1
Sa, 21.10. 22:30 1016 - 0,9
Sa, 21.10. 22:00 1016 - 0,8
Sa, 21.10. 21:30 1016 - 0,5
Sa, 21.10. 21:00 1017 - 0,2
Sa, 21.10. 20:30 1017 0,0
Ortszeit Schneehöhe (cm)
Sa, 21.10. 20:00 -
Sa, 21.10. 14:00 -
Sa, 21.10. 8:00 -
Sa, 21.10. 2:00 -
Ortszeit Schneehöhe (cm)
Sa, 21.10. 23:00 -
Sa, 21.10. 22:30 -
Sa, 21.10. 22:00 -
Sa, 21.10. 21:30 -
Sa, 21.10. 21:00 -
Sa, 21.10. 20:30 -
Link zu dieser Seite / Seite empfehlen

Das Wetter in ...